[[{"header":{"parameterUnit":"m.s-1","parameterCategory":1,"la1":30.2991,"la2":30.254,"lo1":-89.0895,"lo2":-89.0444,"dy":0.0017,"dx":0.0017,"nx":28,"ny":28,"refTime":"2025-06-06T21:00:00:Z","depth":0,"parameterNumber":2,"parameterNumberName":"U-component_of_WINDS"},"data":[0,0,0,0,0,0,0,0,0,0,0,0,0,0,0,0,0,0,0,0,0,0,0,0,0,0,0,0,0,0,0,0,0,0,0,0,0,0,0,0,0,0,0,0,0,0,0,0,0,0,0,0,0,0,0,0,0,0,1.8632,1.8633,0,1.8696,1.8697,1.8698,1.872,1.8719,1.8719,1.8719,1.8787,1.8789,1.8791,0,0,0,0,0,0,0,0,0,0,0,0,0,1.8532,1.8534,1.8632,1.8633,1.8634,1.8696,1.8697,1.8698,1.872,1.8719,1.8719,1.8719,1.8786,1.8788,1.8791,0,0,0,0,0,0,0,0,0,0,0,0,0,1.8584,1.8535,1.8632,1.8652,1.8655,1.8696,1.8697,1.8698,1.872,1.8719,1.8719,1.8718,1.8785,1.8788,1.8791,1.8818,0,0,1.8801,1.8802,0,0,0,0,0,0,0,0,1.8581,1.8588,1.8648,1.8651,1.8654,1.8699,1.8687,1.8738,1.872,1.8695,1.8719,1.8718,1.8758,1.8763,1.8776,1.8821,1.8824,1.8801,1.8803,1.8804,1.8805,0,0,0,0,0,0,0,1.8577,1.8585,1.8658,1.8649,1.8653,1.8659,1.8666,1.8697,1.8728,1.8697,1.8699,1.8706,1.876,1.8773,1.8778,1.8825,1.8801,1.8804,1.8806,1.8807,1.8897,1.8898,0,0,0,0,0,0,1.857,1.8582,1.8656,1.866,1.8616,1.8661,1.8669,1.8685,1.8728,1.8734,1.8706,1.8707,1.8768,1.8775,1.8781,1.8816,1.8804,1.8807,1.8809,1.8897,1.8898,1.8898,0,0,0,0,0,0,1.8568,1.8576,1.8653,1.8621,1.8632,1.8663,1.8681,1.8687,1.87,1.8735,1.8741,1.8714,1.8768,1.8776,1.8809,1.8819,1.8808,1.8811,1.8896,1.8897,1.8898,1.8886,0,0,0,0,0,0,1.8565,1.8576,1.8585,1.8621,1.8633,1.8679,1.8682,1.8688,1.8705,1.8707,1.8744,1.875,1.8769,1.8804,1.8812,1.8823,1.8814,1.8896,1.8897,1.8898,1.8886,1.8886,1.8887,0,0,0,0,0,1.8561,1.8579,1.8586,1.8594,1.8646,1.868,1.8686,1.8707,1.8706,1.8717,1.8739,1.8749,1.8816,1.8807,1.8816,1.8828,1.8895,1.8896,1.8898,1.8885,1.8886,1.8887,0,0,0,0,0,0,1.8544,1.8585,1.8592,1.8622,1.8647,1.8683,1.8697,1.8707,1.8734,1.8734,1.8759,1.8767,1.8798,1.8817,1.8806,1.8857,1.8856,1.8859,1.8844,1.8845,1.8846,1.8841,1.8816,0,0,0,0,0,1.8544,1.8567,1.8601,1.8625,1.8637,1.8665,1.868,1.8694,1.8722,1.8733,1.8757,1.8784,1.8812,1.8829,1.8857,1.8888,1.8898,1.8901,1.8902,1.8902,1.8905,1.8924,1.8926,1.8902,1.8902,1.8902,0,0,1.8543,1.8568,1.8582,1.8622,1.8643,1.8668,1.8674,1.8699,1.8718,1.8737,1.8769,1.8788,1.882,1.8853,1.8868,1.8869,1.8913,1.8904,1.8904,1.8906,1.8926,1.8928,1.893,1.8903,1.8903,1.8903,0,0,1.8555,1.8576,1.8598,1.862,1.8652,1.867,1.8675,1.871,1.8724,1.8756,1.8771,1.8795,1.8841,1.8864,1.8881,1.8904,1.8914,1.8912,1.8915,1.8934,1.8936,1.8938,1.8946,1.8949,1.8914,1.8914,1.8914,0,1.8551,1.8588,1.8609,1.8634,1.8652,1.867,1.8693,1.8713,1.8752,1.8765,1.8765,1.8824,1.8847,1.8886,1.8891,1.8905,1.8913,1.8908,1.8934,1.8936,1.8938,1.8946,1.895,1.8914,1.8914,1.8914,1.8914,0,1.8582,1.8607,1.8621,1.8659,1.8678,1.8702,1.8728,1.8746,1.8758,1.8777,1.8811,1.8839,1.8873,1.8883,1.8896,1.8925,1.8924,1.8928,1.8928,1.8939,1.8948,1.8951,1.8913,1.8913,1.8913,1.8913,0,0,1.8584,1.8633,1.8638,1.8656,1.8693,1.8713,1.8739,1.8771,1.8787,1.8814,1.8837,1.8876,1.8881,1.8901,1.8916,1.8933,1.895,1.8935,1.8937,1.8938,1.8985,1.8981,1.8985,1.8957,1.8958,1.8958,1.8982,0,1.8601,1.8647,1.8667,1.8704,1.8729,1.8746,1.8769,1.8795,1.8814,1.8838,1.886,1.8888,1.8891,1.8904,1.8921,1.8944,1.896,1.8943,1.898,1.8981,1.8971,1.8989,1.8985,1.9006,1.8986,1.8986,1.8987,0,1.8627,1.8654,1.8693,1.8728,1.8739,1.8759,1.8791,1.8814,1.8845,1.8857,1.888,1.8895,1.8924,1.8922,1.8963,1.8951,1.8968,1.8982,1.8983,1.8988,1.8984,1.8995,1.9014,1.9017,1.8992,1.8991,1.8991,0,1.8625,1.8671,1.8701,1.8716,1.8757,1.8771,1.8789,1.8819,1.8838,1.8866,1.8879,1.8911,1.8928,1.8953,1.8977,1.8973,1.9017,1.9016,1.9029,1.9028,1.9037,1.9036,1.906,1.9047,1.9047,1.9047,1.9047,0,1.8643,1.8666,1.8701,1.8719,1.8747,1.8771,1.8798,1.8817,1.8844,1.8868,1.8886,1.8907,1.8937,1.8963,1.8982,1.9014,1.9022,1.9034,1.9039,1.9033,1.9031,1.9044,1.9043,1.9048,1.9048,1.9048,1.9047,0,1.8645,1.867,1.8703,1.874,1.875,1.8769,1.8801,1.8821,1.8841,1.887,1.8879,1.891,1.8942,1.8968,1.901,1.9023,1.9057,1.9062,1.9046,1.9049,1.906,1.9059,1.9093,1.9099,1.9082,1.9082,1.9082,0,1.8655,1.8673,1.8713,1.8729,1.8747,1.8774,1.8793,1.8818,1.8837,1.8874,1.8889,1.8922,1.895,1.9,1.9028,1.906,1.9067,1.9077,1.9072,1.9065,1.9068,1.9067,1.9069,1.9077,1.9077,1.9077,1.9077,0,1.8669,1.8681,1.8707,1.8738,1.8761,1.8786,1.8813,1.8826,1.8856,1.8877,1.891,1.8931,1.8974,1.9007,1.9042,1.9063,1.9075,1.9078,1.9083,1.9077,1.9067,1.9074,1.9048,1.9077,1.9077,1.9077,1.9077,1.9077,1.8676,1.8694,1.8725,1.8754,1.8777,1.8801,1.8821,1.8844,1.8871,1.8907,1.8921,1.8954,1.8986,1.9035,1.9056,1.9083,1.9085,1.9092,1.9093,1.9095,1.9094,1.9063,1.909,1.909,1.909,1.909,1.909,0,1.8692,1.8713,1.874,1.8776,1.88,1.8809,1.8839,1.8859,1.8888,1.8916,1.8943,1.8981,1.9013,1.9044,1.9078,1.9094,1.9101,1.9103,1.9102,1.9107,1.9091,1.9083,1.9097,1.9096,1.9096,1.9096,1.9096,1.9096,1.8703,1.8734,1.8749,1.8792,1.8813,1.8846,1.8862,1.8886,1.8908,1.895,1.8977,1.8996,1.9026,1.9063,1.9093,1.9102,1.9114,1.9114,1.9124,1.9108,1.9107,1.9106,1.91,1.9116,1.9116,1.9137,1.9137,1.9138]},{"header":{"parameterUnit":"m.s-1","parameterCategory":1,"la1":30.2991,"la2":30.254,"lo1":-89.0895,"lo2":-89.0444,"dy":0.0017,"dx":0.0017,"nx":28,"ny":28,"refTime":"2025-06-06T21:00:00:Z","depth":0,"parameterNumber":3,"parameterNumberName":"V-component_of_WINDS"},"data":[0,0,0,0,0,0,0,0,0,0,0,0,0,0,0,0,0,0,0,0,0,0,0,0,0,0,0,0,0,0,0,0,0,0,0,0,0,0,0,0,0,0,0,0,0,0,0,0,0,0,0,0,0,0,0,0,0,0,1.6921,1.692,0,1.6895,1.6895,1.6894,1.6901,1.6901,1.6902,1.6902,1.6874,1.6872,1.6871,0,0,0,0,0,0,0,0,0,0,0,0,0,1.6973,1.6972,1.6921,1.692,1.692,1.6895,1.6895,1.6894,1.69,1.6901,1.6902,1.6902,1.6874,1.6873,1.6871,0,0,0,0,0,0,0,0,0,0,0,0,0,1.6949,1.6972,1.6921,1.692,1.692,1.6895,1.6895,1.6894,1.69,1.6901,1.6902,1.6903,1.6875,1.6873,1.6871,1.6845,0,0,1.6865,1.6865,0,0,0,0,0,0,0,0,1.695,1.6947,1.6921,1.692,1.692,1.6902,1.6903,1.6878,1.69,1.6908,1.6902,1.6903,1.6882,1.688,1.6873,1.6843,1.6842,1.6865,1.6864,1.6863,1.6863,0,0,0,0,0,0,0,1.6952,1.6948,1.691,1.692,1.692,1.6921,1.6918,1.6898,1.6891,1.6907,1.6907,1.6904,1.6882,1.6875,1.6873,1.6842,1.6865,1.6864,1.6862,1.6862,1.6789,1.6788,0,0,0,0,0,0,1.6954,1.695,1.6911,1.691,1.6937,1.6919,1.6916,1.6907,1.6891,1.689,1.6904,1.6905,1.6878,1.6875,1.6872,1.684,1.6863,1.6862,1.6861,1.6789,1.6788,1.6787,0,0,0,0,0,0,1.6956,1.6951,1.6912,1.693,1.6925,1.6917,1.6907,1.6906,1.6899,1.6889,1.6887,1.6898,1.6878,1.6874,1.6851,1.6839,1.6861,1.6859,1.679,1.6789,1.6788,1.6776,0,0,0,0,0,0,1.6957,1.6951,1.6942,1.693,1.6924,1.6893,1.6906,1.6905,1.6896,1.6897,1.6883,1.6881,1.6879,1.6854,1.685,1.6837,1.6858,1.6791,1.679,1.6788,1.6777,1.6774,1.6771,0,0,0,0,0,1.6959,1.6939,1.6941,1.6936,1.6912,1.6892,1.6889,1.6887,1.6895,1.6885,1.6878,1.6882,1.6841,1.6852,1.6847,1.6833,1.6792,1.679,1.6788,1.6778,1.6775,1.6771,0,0,0,0,0,0,1.6949,1.6937,1.694,1.6915,1.6905,1.6893,1.688,1.6883,1.6869,1.6871,1.6868,1.6865,1.6842,1.6835,1.6847,1.6807,1.6818,1.6815,1.6812,1.6808,1.6805,1.6807,1.6856,0,0,0,0,0,1.6944,1.6929,1.692,1.6899,1.6894,1.6888,1.6879,1.6879,1.6868,1.6863,1.6855,1.6843,1.6828,1.6818,1.6803,1.6776,1.6773,1.6764,1.6762,1.6759,1.6757,1.6742,1.6738,1.6781,1.6781,1.6781,0,0,1.6933,1.6925,1.6916,1.6897,1.6889,1.6873,1.6884,1.6867,1.6856,1.686,1.6838,1.6832,1.6819,1.6794,1.6782,1.6788,1.6744,1.6757,1.6755,1.6754,1.6739,1.6735,1.6732,1.678,1.678,1.678,0,0,1.6906,1.6898,1.688,1.6872,1.686,1.6856,1.6852,1.684,1.6836,1.6815,1.6817,1.6803,1.6777,1.6767,1.6759,1.6729,1.6731,1.6724,1.6709,1.6694,1.6691,1.6688,1.6677,1.6673,1.6721,1.6721,1.6721,0,1.6894,1.6871,1.687,1.6853,1.6845,1.6849,1.683,1.6822,1.6805,1.6799,1.6805,1.6772,1.6764,1.6737,1.6729,1.6723,1.6717,1.6725,1.6692,1.6689,1.6686,1.6675,1.6671,1.672,1.672,1.6721,1.6721,0,1.6857,1.6841,1.6828,1.6813,1.6802,1.6785,1.6781,1.677,1.6771,1.6766,1.6744,1.6734,1.6717,1.6711,1.6711,1.6683,1.6687,1.6693,1.6704,1.6681,1.6671,1.6667,1.6719,1.6719,1.672,1.672,0,0,1.6821,1.6806,1.6802,1.6795,1.6782,1.6769,1.6752,1.6736,1.6727,1.6716,1.67,1.6678,1.6683,1.6674,1.6673,1.666,1.6636,1.6667,1.6667,1.6661,1.6605,1.6601,1.6596,1.6638,1.6637,1.6637,1.6606,0,1.6793,1.6762,1.6761,1.6733,1.6718,1.6722,1.6707,1.6697,1.6692,1.6679,1.6674,1.6658,1.6666,1.666,1.6648,1.6642,1.6625,1.6644,1.6623,1.6622,1.6626,1.6591,1.6586,1.6558,1.6602,1.6602,1.6601,0,1.6755,1.6743,1.6713,1.6703,1.6697,1.6683,1.6668,1.6656,1.6644,1.6642,1.6632,1.6633,1.6614,1.6626,1.66,1.6613,1.6605,1.66,1.6599,1.6597,1.661,1.6587,1.6549,1.6545,1.6595,1.6596,1.6596,0,1.6731,1.6708,1.6687,1.6681,1.6669,1.6659,1.6653,1.6642,1.6633,1.662,1.6614,1.6599,1.6591,1.6579,1.6576,1.6585,1.655,1.6562,1.6547,1.6547,1.6539,1.6539,1.6498,1.6534,1.6534,1.6534,1.6534,0,1.6699,1.6681,1.6677,1.6664,1.6644,1.6642,1.6622,1.6617,1.6608,1.6593,1.6596,1.6582,1.6579,1.6565,1.6562,1.6541,1.6537,1.6534,1.6533,1.6534,1.6534,1.6527,1.6529,1.6533,1.6533,1.6533,1.6534,0,1.6669,1.6666,1.6644,1.6634,1.6631,1.6616,1.6607,1.6595,1.6591,1.6573,1.6569,1.6562,1.6546,1.6541,1.6521,1.6519,1.6494,1.6496,1.6498,1.6498,1.6483,1.6485,1.6436,1.643,1.647,1.647,1.647,0,1.6648,1.6634,1.6623,1.6614,1.6608,1.6594,1.6585,1.6583,1.6573,1.656,1.6549,1.6533,1.6519,1.6493,1.6486,1.6471,1.6471,1.6456,1.6469,1.647,1.6471,1.6471,1.647,1.6453,1.6452,1.6452,1.6452,0,1.6612,1.6611,1.6598,1.6584,1.6574,1.6563,1.6552,1.6545,1.6541,1.653,1.6514,1.6504,1.6484,1.6468,1.6452,1.6446,1.6448,1.6448,1.6443,1.6443,1.6445,1.6444,1.6491,1.6449,1.6449,1.6449,1.6449,1.6449,1.6585,1.6573,1.6564,1.6549,1.6541,1.6532,1.6519,1.6514,1.6501,1.6485,1.6485,1.6467,1.6456,1.6436,1.6428,1.6414,1.6418,1.6412,1.641,1.6409,1.6407,1.6448,1.6411,1.6411,1.6411,1.6411,1.6411,0,1.6548,1.6543,1.6529,1.6515,1.6504,1.6508,1.6497,1.6486,1.6471,1.6461,1.6448,1.6429,1.6414,1.6406,1.6391,1.638,1.6381,1.6376,1.6377,1.6375,1.6404,1.6409,1.6376,1.6376,1.6376,1.6376,1.6376,1.6376,1.6528,1.6508,1.6506,1.6482,1.6476,1.6459,1.6452,1.6443,1.6435,1.6414,1.6401,1.6397,1.6388,1.6371,1.6357,1.6355,1.6349,1.6344,1.6343,1.637,1.6373,1.6377,1.6381,1.6343,1.6343,1.6315,1.6314,1.6314]}]]